Simultaneous Nadir Overpasses (SNOs) Predictions

Prediction of SNOs between METOP-A and NOAA-19 Satellite Orbit:

Table of predicted SNOs for the next 14.0 days since TLE Epoch: 10/10/2020
Index Date (METOP-A) Time (METOP-A) Lat,Lon (METOP-A) SZA (METOP-A ) Date (NOAA-19) Time (NOAA-19) Lat,Lon (NOAA-19) SZA (NOAA-19 ) Distance(km) Time Diff (sec)
1 10/13/2020 02:19:23 -80.72, -21.55 91.05 10/13/2020 02:18:22 -80.72, -21.40 91.05 2.70 61
2 10/13/2020 03:10:03 80.73, 145.92 88.99 10/13/2020 03:09:24 80.72, 145.84 88.97 2.03 39
3 10/13/2020 04:00:45 -80.71, -47.03 91.03 10/13/2020 04:00:23 -80.72, -47.08 91.03 1.61 22
4 10/13/2020 04:51:25 80.72, 120.45 89.00 10/13/2020 04:51:24 80.71, 120.52 89.00 1.54 1
5 10/13/2020 05:42:07 -80.70, -72.50 91.02 10/13/2020 05:42:23 -80.72, -72.39 91.00 2.67 16
6 10/13/2020 06:32:47 80.71, 94.97 89.01 10/13/2020 06:33:25 80.72, 94.84 89.02 2.57 38
7 10/13/2020 07:23:28 -80.72, -97.64 90.97 10/13/2020 07:24:23 -80.71, -97.71 90.97 1.28 55
8 10/13/2020 08:14:13 80.60, 68.17 88.87 10/13/2020 08:15:20 80.66, 71.32 89.08 57.47 67
9 10/24/2020 03:32:50 -80.72, -40.11 87.05 10/24/2020 03:31:39 -80.74, -39.98 87.04 2.76 71
10 10/24/2020 04:23:30 80.73, 127.33 92.98 10/24/2020 04:22:38 80.74, 127.23 92.98 1.90 52
